This is the latest recevied weather packets stored in our database for station/object N3LF. If no packets are shown the sender has not sent any weather packets the latest 10 day(s).
| Time | Temp. | Humidity | Pressure | Rain* | Wind** | Luminosity | Snow |
|---|---|---|---|---|---|---|---|
| 1777818172 | 13.33° C | 79% | 1024.5 hPa | 0 mm | - | 455 W/m² | - |
| 1777817868 | 11.11° C | 95% | 1024.4 hPa | 0 mm | - | 443 W/m² | - |
| 1777817566 | 10.56° C | 99% | 1024.6 hPa | 0 mm | - | 429 W/m² | - |
| 1777817263 | 10.56° C | 99% | 1024.5 hPa | 0 mm | - | 415 W/m² | - |
| 1777816960 | 9.44° C | 99% | 1024.5 hPa | 0 mm | - | 400 W/m² | - |
| 1777816656 | 10° C | 99% | 1024.6 hPa | 0 mm | - | 386 W/m² | - |
| 1777816353 | 9.44° C | 99% | 1024.6 hPa | 0 mm | - | 372 W/m² | - |
| 1777816051 | 9.44° C | 99% | 1024.7 hPa | 0 mm | - | 356 W/m² | - |
| 1777815748 | 8.89° C | 99% | 1024.8 hPa | 0 mm | - | 356 W/m² | - |
| 1777815445 | 8.89° C | 99% | 1024.6 hPa | 0 mm | - | 337 W/m² | - |
| 1777815143 | 8.89° C | 99% | 1024.5 hPa | 0 mm | - | 316 W/m² | - |
| 1777814839 | 8.33° C | 99% | 1024.5 hPa | 0 mm | - | 297 W/m² | - |
| 1777814535 | 7.78° C | 99% | 1024.5 hPa | 0 mm | - | 276 W/m² | - |
| 1777814233 | 7.78° C | 99% | 1024.5 hPa | 0 mm | - | 258 W/m² | - |
| 1777813929 | 7.78° C | 99% | 1024.7 hPa | 0 mm | - | 237 W/m² | - |
| 1777813627 | 7.22° C | 99% | 1024.5 hPa | 0 mm | - | 218 W/m² | - |
| 1777813324 | 7.22° C | 99% | 1024.5 hPa | 0 mm | - | 200 W/m² | - |
| 1777813021 | 6.67° C | 99% | 1024.5 hPa | 0 mm | - | 181 W/m² | - |
| 1777812719 | 6.11° C | 99% | 1024.6 hPa | 0 mm | - | 163 W/m² | - |
| 1777812415 | 6.11° C | 99% | 1024.5 hPa | 0 mm | - | 145 W/m² | - |
| 1777812114 | 5.56° C | 99% | 1024.6 hPa | 0 mm | - | 133 W/m² | - |
| 1777811812 | 5.56° C | 99% | 1024.5 hPa | 0 mm | - | 120 W/m² | - |
| 1777811509 | 5° C | 99% | 1024.6 hPa | 0 mm | - | 107 W/m² | - |
| 1777811204 | 5° C | 99% | 1024.5 hPa | 0 mm | - | 96 W/m² | - |
| 1777810902 | 4.44° C | 99% | 1024.6 hPa | 0 mm | - | 87 W/m² | - |
* Rain latest hour (hover to see other rain measurements)
** Current wind speed in m/s (hover to see current wind gust speed)